Hourly Data Report for October 31, 2013

All times are specified in Local Standard Time (LST). Add 1 hour to adjust for Daylight Saving Time where and when it is observed.

RANKIN INLET A
NUNAVUT

62°48'38.000" N
92°06'53.000" W
32.30 m
2303405
71083
YRT

Related Data

No related data is available for this station

Download Data

Hourly Data (October 2013)
Hourly Data Report for October 31, 2013
Temp Definition
°C
Dew Point Temp Definition
°C
Rel Hum Definition
%
Wind Dir Definition
10's deg

Wind Spd Definition
km/h
Visibility Definition
km
Stn Press Definition
kPa
Hmdx Definition


Wind Chill Definition


Weather Definition


TIME
00:00 Legend Double Dagger -3.4 -5.7 84 11 43 3.2 99.35   -12 Snow,Blowing Snow
01:00 Legend Double Dagger -3.5 -5.4 87 11 40 4.0 99.36   -12 Snow,Blowing Snow
02:00 Legend Double Dagger -3.5 -6.1 82 11 44 3.2 99.38   -12 Snow,Blowing Snow
03:00 Legend Double Dagger -3.3 -5.6 84 10 37 4.8 99.41   -12 Snow,Blowing Snow
04:00 Legend Double Dagger -3.5 -5.8 84 11 41 6.4 99.46   -12 Snow,Blowing Snow
05:00 Legend Double Dagger -3.5 -6.3 81 11 33 9.7 99.50   -11 Snow,Blowing Snow
06:00 Legend Double Dagger -3.6 -5.9 84 10 32 9.7 99.57   -11 Snow,Blowing Snow
07:00 Legend Double Dagger -2.9 -9.6 60 11 32 16.1 99.61   -10 Snow
08:00 Legend Double Dagger -2.9 -7.4 71 9 27 24.1 99.65   -10 Snow
09:00 Legend Double Dagger -3.4 -6.0 82 8 32 19.3 99.69   -11 Snow,Blowing Snow
10:00 Legend Double Dagger -3.5 -6.3 81 8 37 16.1 99.72   -12 Snow,Blowing Snow
11:00 Legend Double Dagger -4.0 -5.7 88 8 27 4.8 99.78   -11 Snow Showers,Blowing Snow
12:00 Legend Double Dagger -3.8 -5.5 88 7 30 4.8 99.79   -11 Snow Showers,Blowing Snow
13:00 Legend Double Dagger -3.8 -5.2 90 7 35 3.2 99.84   -12 Snow Showers,Blowing Snow
14:00 Legend Double Dagger -3.5 -4.6 92 8 19 1.2 99.92   -9 Snow Showers,Blowing Snow
15:00 Legend Double Dagger -3.4 -5.0 89 8 25 16.1 99.99   -10 Snow Showers
16:00 Legend Double Dagger -3.0 -6.8 75 12 21 19.3 100.08   -9 Snow Showers
17:00 Legend Double Dagger -3.5 -6.6 79 9 20 24.1 100.17   -10 Snow Showers
18:00 Legend Double Dagger -3.8 -5.4 89 8 19 3.2 100.27   -10 Snow Showers,Blowing Snow
19:00 Legend Double Dagger -3.9 -5.3 90 12 21 3.2 100.34   -10 Snow Showers,Blowing Snow
20:00 Legend Double Dagger -3.4 -8.1 70 11 29 12.9 100.40   -11 Snow,Blowing Snow
21:00 Legend Double Dagger -4.3 -9.7 66 9 20 9.7 100.48   -11 Snow,Blowing Snow
22:00 Legend Double Dagger -5.5 -10.5 68 9 16 12.9 100.55   -11 Snow Showers
23:00 Legend Double Dagger -6.3 -10.6 72 7 15 16.1 100.60   -12 Snow Showers

Notes on Data Quality.

Legend

  • E = Estimated
  • M = Missing
  • NA = Not Available
  • ‡ = Partner data that is not subject to review by the National Climate Archives
Date modified: